Location: Berg
(47.2344°N, 9.5296°E)
Time: 15:39:15
(UTC+00:00)

Cosmos 44 - Pass Details

Date: 17 May 2021
Orbit: 571 x 791 km, 65.1° (Epoch: 13 June)

Event Time Altitude Azimuth Distance (km) Brightness Sun altitude
Rises 22:04:18 0° 308° (NW) 3,279 7.7 -21.2°
Reaches altitude 10° 22:07:59 10° 283° (WNW) 2,320 6.4 -21.4°
Maximum altitude 22:10:28 13° 255° (WSW) 2,062 5.7 -21.5°
Enters shadow 22:12:14 12° 234° (SW) 2,164 5.6 -21.6°
